Location: Hengforden
(52.3167°N, 6.1333°E)
Time: 16:10:57
(UTC+00:00)

OPS 6432 - Pass Details

Date: 14 June 2025
Orbit: 411 x 1479 km, 63.3° (Epoch: 19 July)

Event Time Altitude Azimuth Distance (km) Brightness Sun altitude
Rises 22:53:31 0° 313° (NW) 2,545 9.1 -13.8°
Reaches altitude 10° 22:55:45 10° 315° (NW) 1,580 8.0 -13.9°
Maximum altitude 22:59:09 84° 44° (NE) 426 4.2 -13.9°
Enters shadow 23:01:06 22° 131° (SE) 969 5.6 -14.0°
